EW4049 Weather Reports


time (UTC)temp
F
wind
direction
speed
knots
gust
knots
rain 1hr
in
rain 24hr
in
rain mn
in
humidity
%
barometer
mb
20210801212516 64 53 0.9 8.7 0.00 0.25 0.00 56 1037.9
20210801212109 64 50 3.5 8.7 0.00 0.25 0.00 55 1037.9
20210801211554 63 57 0.9 9.6 0.00 0.25 0.00 56 1037.9
20210801211047 63 43 3.5 7.8 0.00 0.25 0.00 55 1038.0
20210801210533 63 79 2.6 7.0 0.00 0.25 0.00 59 1038.1
20210801210024 63 169 1.7 8.7 0.00 0.29 0.00 58 1038.2
20210801205605 63 53 3.5 7.8 0.00 0.29 0.00 58 1038.3
20210801205038 63 114 2.6 5.2 0.00 0.29 0.00 57 1038.3
20210801204607 62 56 0.9 7.0 0.00 0.29 0.00 61 1038.3
20210801204056 62 30 2.6 7.0 0.00 0.29 0.00 63 1038.4
20210801203544 62 49 0.9 7.0 0.00 0.29 0.00 63 1038.5
20210801203041 62 44 3.5 7.0 0.00 0.29 0.00 61 1038.5
20210801202536 62 56 3.5 7.8 0.00 0.29 0.00 61 1038.6
20210801201604 62 162 1.7 7.0 0.00 0.29 0.00 64 1038.7
20210801201051 61 62 2.6 7.0 0.00 0.29 0.00 64 1038.7
20210801200529 61 63 3.5 7.0 0.00 0.29 0.00 64 1038.8
20210801200108 61 69 2.6 7.0 0.00 0.31 0.00 65 1038.8
20210801195553 61 41 3.5 7.8 0.00 0.31 0.00 65 1038.8
20210801195038 61 63 5.2 7.8 0.00 0.31 0.00 64 1038.8
20210801194532 61 92 0.9 9.6 0.00 0.31 0.00 64 1038.8
20210801194026 62 158 5.2 14.8 0.00 0.31 0.00 64 1039.0
20210801193513 62 136 8.7 14.8 0.00 0.31 0.00 61 1039.0
20210801193108 63 60 1.7 13.0 0.00 0.31 0.00 62 1039.0
20210801192555 63 38 7.0 13.0 0.00 0.31 0.00 62 1039.1
20210801192034 62 117 6.1 11.3 0.00 0.31 0.00 62 1039.0
20210801191600 63 53 7.0 11.3 0.00 0.31 0.00 60 1039.1
20210801191052 63 77 1.7 5.2 0.00 0.31 0.00 62 1039.3
20210801190540 62 102 1.7 6.1 0.00 0.31 0.00 62 1039.3
20210801190024 62 52 2.6 7.0 0.00 0.31 0.00 65 1039.4
20210801185600 61 75 3.5 10.4 0.00 0.31 0.00 61 1039.5
20210801185053 61 51 4.3 10.4 0.00 0.31 0.00 64 1039.6
20210801184537 61 79 4.3 7.8 0.00 0.31 0.00 65 1039.6
20210801184014 60 70 2.6 8.7 0.00 0.31 0.00 68 1039.7
20210801183543 60 58 5.2 8.7 0.00 0.31 0.00 69 1039.7
20210801183036 60 65 5.2 10.4 0.00 0.31 0.00 70 1039.8
20210801182525 61 69 4.3 10.4 0.00 0.31 0.00 67 1039.8
20210801182019 61 37 4.3 8.7 0.00 0.31 0.00 67 1039.8
20210801181605 61 56 4.3 9.6 0.00 0.31 0.00 65 1039.9
20210801181057 61 70 5.2 9.6 0.00 0.31 0.00 63 1040.0
20210801180548 61 89 0.0 8.7 0.00 0.31 0.00 64 1040.0
20210801180028 61 68 0.9 10.4 0.00 0.31 0.00 63 1040.1
20210801175544 61 70 3.5 10.4 0.00 0.31 0.00 61 1040.1
20210801175040 60 46 3.5 10.4 0.00 0.31 0.00 61 1040.0
20210801174534 60 48 4.3 9.6 0.00 0.31 0.00 64 1040.0
20210801174101 60 57 1.7 9.6 0.00 0.31 0.00 64 1040.1
20210801173554 60 46 2.6 9.6 0.00 0.31 0.00 62 1040.2
20210801173039 60 51 5.2 7.8 0.00 0.31 0.00 60 1040.2
20210801172533 60 72 4.3 7.0 0.00 0.31 0.00 62 1040.2
20210801172121 60 81 1.7 7.0 0.00 0.31 0.00 57 1040.2
20210801171531 60 52 2.6 7.0 0.00 0.31 0.00 59 1040.2
20210801170526 59 51 2.6 12.2 0.00 0.31 0.00 57 1040.2
20210801170103 60 70 3.5 12.2 0.00 0.31 0.00 60 1040.2
20210801165626 60 93 6.1 10.4 0.00 0.31 0.00 58 1040.2
20210801165045 60 60 5.2 12.2 0.00 0.31 0.00 58 1040.2
20210801164609 60 57 6.1 12.2 0.00 0.31 0.00 60 1040.2
20210801164059 60 21 3.5 9.6 0.00 0.31 0.00 58 1040.2
20210801163546 60 56 2.6 9.6 0.00 0.31 0.00 64 1040.1
20210801163041 60 89 6.1 9.6 0.00 0.31 0.00 58 1040.1
20210801162529 60 86 3.5 7.0 0.00 0.31 0.00 62 1040.1
20210801162104 60 84 1.7 5.2 0.00 0.31 0.00 63 1040.1
20210801161552 59 72 2.6 6.1 0.00 0.31 0.00 63 1040.1
20210801161031 59 63 2.6 7.0 0.00 0.31 0.00 60 1040.1
20210801160518 59 86 3.5 7.0 0.00 0.31 0.00 59 1040.1
20210801155547 59 55 2.6 5.2 0.00 0.31 0.00 56 1040.1
20210801155042 58 50 1.7 3.5 0.00 0.31 0.00 59 1040.0
20210801154537 58 22 0.9 3.5 0.00 0.31 0.00 75 1040.0
20210801154025 58 37 0.9 3.5 0.00 0.31 0.00 84 1040.0
20210801153602 57 43 0.0 1.7 0.00 0.31 0.00 86 1039.9
20210801153034 56 49 0.9 3.5 0.00 0.31 0.00 85 1040.1
20210801152601 56 11 0.9 3.5 0.00 0.31 0.00 84 1040.0
20210801152052 57 15 0.0 3.5 0.00 0.31 0.00 86 1040.1
20210801151549 56 17 0.0 4.3 0.00 0.31 0.00 86 1040.1
20210801151035 56 23 0.0 4.3 0.00 0.31 0.00 90 1040.1
20210801150530 55 31 0.0 2.6 0.00 0.31 0.00 92 1040.1
20210801150109 54 21 0.9 2.6 0.00 0.31 0.00 92 1040.1
20210801145538 54 18 0.0 1.7 0.00 0.31 0.00 92 1040.1
20210801145107 54 16 0.0 1.7 0.00 0.31 0.00 92 1040.0
20210801144541 54 18 0.0 0.9 0.00 0.31 0.00 93 1040.0
20210801144037 53 15 0.0 0.9 0.00 0.31 0.00 93 1040.0
20210801143533 53 15 0.0 0.9 0.00 0.31 0.00 93 1040.0
20210801143012 53 22 0.0 0.9 0.00 0.31 0.00 93 1040.2
20210801142606 53 353 0.0 0.9 0.00 0.31 0.00 94 1040.2
20210801142054 52 258 0.0 0.0 0.00 0.31 0.00 94 1040.2
20210801141548 52 258 0.0 0.0 0.00 0.31 0.00 94 1040.2
20210801141021 51 258 0.0 0.0 0.00 0.31 0.00 94 1040.2
20210801140516 51 258 0.0 0.0 0.00 0.31 0.00 94 1040.2
20210801140055 51 258 0.0 0.0 0.00 0.31 0.00 94 1040.1
20210801135539 51 258 0.0 0.0 0.00 0.31 0.00 94 1040.2
20210801135033 51 258 0.0 0.0 0.00 0.31 0.00 94 1040.0
20210801134519 51 258 0.0 0.9 0.00 0.31 0.00 94 1040.0
20210801134015 51 242 0.0 0.0 0.00 0.31 0.00 94 1039.9
20210801133603 51 242 0.0 0.0 0.00 0.31 0.00 94 1039.9
20210801133059 51 241 0.0 0.0 0.00 0.31 0.00 94 1039.8
20210801132530 51 241 0.0 1.7 0.00 0.31 0.00 94 1039.8
20210801132106 51 241 0.0 1.7 0.00 0.31 0.00 94 1039.8
20210801131554 51 241 0.0 0.0 0.00 0.31 0.00 94 1039.8
20210801131050 51 241 0.0 0.9 0.00 0.31 0.00 94 1039.8
20210801130544 50 241 0.0 0.9 0.00 0.31 0.00 94 1039.6
20210801130023 50 229 0.0 0.0 0.00 0.31 0.00 94 1039.6
20210801125607 50 229 0.0 0.9 0.00 0.31 0.00 94 1039.6
20210801125055 50 229 0.0 0.9 0.00 0.31 0.00 94 1039.5
20210801124722 50 219 0.0 0.9 0.00 0.31 0.00 95 1039.5
20210801124043 50 274 0.0 0.0 0.00 0.31 0.00 95 1039.5
20210801123530 50 274 0.0 0.0 0.00 0.31 0.00 95 1039.5
20210801123025 50 274 0.0 0.0 0.00 0.31 0.00 94 1039.4
20210801122551 50 274 0.0 0.0 0.00 0.31 0.00 95 1039.4
20210801122028 50 274 0.0 0.0 0.00 0.31 0.00 95 1039.4
20210801121553 50 274 0.0 0.0 0.00 0.31 0.00 94 1039.4
20210801121041 50 274 0.0 0.0 0.00 0.31 0.00 94 1039.4
20210801120525 50 274 0.0 0.9 0.00 0.31 0.00 94 1039.4
20210801115556 50 274 0.0 0.9 0.00 0.31 0.00 95 1039.3
20210801115049 50 285 0.0 0.9 0.00 0.31 0.00 95 1039.3
20210801114538 50 285 0.0 0.9 0.00 0.31 0.00 95 1039.3
20210801114017 50 286 0.0 0.0 0.00 0.31 0.00 95 1039.2
20210801113545 50 286 0.0 0.0 0.00 0.31 0.00 95 1039.2
20210801113033 50 286 0.0 0.0 0.00 0.31 0.00 95 1039.2
20210801112606 50 286 0.0 0.0 0.00 0.31 0.00 95 1039.2
20210801112055 50 286 0.0 0.0 0.00 0.31 0.00 95 1039.2
20210801111549 50 286 0.0 0.0 0.00 0.31 0.00 95 1039.1
20210801111042 50 286 0.0 0.0 0.00 0.31 0.00 95 1039.1
20210801110528 50 315 0.0 0.0 0.00 0.31 0.00 95 1039.1
20210801110049 50 295 0.0 0.0 0.00 0.31 0.00 95 1039.1
20210801105518 50 295 0.0 0.0 0.00 0.31 0.00 95 1039.2
20210801105044 50 295 0.0 0.0 0.00 0.31 0.00 95 1039.2
20210801104527 50 295 0.0 0.9 0.00 0.31 0.00 95 1039.1
20210801104102 50 288 0.0 0.0 0.00 0.31 0.00 95 1039.0
20210801103546 50 288 0.0 0.0 0.00 0.31 0.00 95 1038.8
20210801103041 50 288 0.0 0.0 0.00 0.31 0.00 95 1038.8
20210801102537 50 288 0.0 0.0 0.00 0.31 0.00 95 1038.8
20210801102103 50 288 0.0 0.0 0.00 0.31 0.00 95 1038.8
20210801101549 50 288 0.0 0.9 0.00 0.31 0.00 95 1038.8
20210801101027 50 288 0.0 0.9 0.00 0.31 0.00 95 1038.8
20210801100554 50 263 0.0 0.0 0.00 0.31 0.00 95 1038.8
20210801100034 50 263 0.0 0.9 0.00 0.31 0.00 95 1038.8
20210801095513 50 264 0.0 0.0 0.00 0.31 0.00 95 1038.8
20210801095109 50 265 0.0 0.0 0.00 0.31 0.00 95 1038.8
20210801094555 50 265 0.0 0.0 0.00 0.31 0.00 95 1038.8
20210801094050 50 261 0.0 0.0 0.00 0.31 0.00 95 1038.8
20210801093518 50 250 0.0 0.0 0.00 0.31 0.00 95 1038.8
20210801093107 50 250 0.0 0.0 0.00 0.31 0.00 95 1038.8
20210801092535 50 250 0.0 0.0 0.00 0.31 0.00 95 1038.8
20210801092029 50 247 0.0 0.9 0.00 0.31 0.00 95 1038.8
20210801091514 50 249 0.0 0.9 0.00 0.31 0.00 95 1038.8
20210801091109 50 281 0.0 0.0 0.00 0.31 0.00 95 1038.8
20210801090555 50 278 0.0 0.0 0.00 0.31 0.00 95 1038.6
20210801090040 50 278 0.0 0.0 0.00 0.31 0.00 95 1038.6
20210801085515 50 278 0.0 0.0 0.00 0.31 0.00 95 1038.7
20210801085105 50 278 0.0 0.0 0.00 0.31 0.00 95 1038.7
20210801084559 50 278 0.0 0.0 0.00 0.31 0.00 95 1038.8
20210801084030 51 278 0.0 0.0 0.00 0.31 0.00 95 1038.6
20210801083558 51 303 0.0 0.0 0.00 0.31 0.00 95 1038.7
20210801083054 51 304 0.0 0.0 0.00 0.31 0.00 95 1038.8
20210801082540 51 307 0.0 0.0 0.00 0.31 0.00 95 1038.8
20210801082034 51 307 0.0 0.0 0.00 0.31 0.00 95 1038.8
20210801081601 51 313 0.0 0.0 0.00 0.31 0.00 95 1038.9
20210801081056 51 313 0.0 0.0 0.00 0.31 0.00 95 1039.1
20210801080526 51 313 0.0 0.0 0.00 0.31 0.00 95 1039.2
20210801080026 51 314 0.0 0.0 0.00 0.32 0.00 95 1039.2
20210801075515 51 314 0.0 0.0 0.00 0.32 0.00 95 1039.2
20210801075024 51 314 0.0 0.0 0.00 0.32 0.00 95 1039.2
20210801074524 51 314 0.0 0.9 0.00 0.32 0.00 95 1039.2
20210801074033 51 314 0.0 0.9 0.00 0.32 0.00 95 1039.3
20210801073529 52 349 0.0 0.0 0.00 0.32 0.00 95 1039.3
20210801073033 52 349 0.0 0.0 0.00 0.32 0.00 95 1039.4
20210801072519 52 349 0.0 0.0 0.00 0.32 0.00 95 1039.4
20210801072026 52 349 0.0 0.0 0.00 0.32 0.00 95 1039.5
20210801071526 52 349 0.0 0.0 0.00 0.32 0.00 95 1039.6
20210801071027 52 349 0.0 0.0 0.00 0.32 0.00 95 1039.7
20210801070535 52 349 0.0 0.0 0.00 0.32 0.00 95 1039.8
20210801070028 52 349 0.0 0.0 0.00 0.32 0.00 95 1039.9
20210801065518 52 349 0.0 0.9 0.00 0.32 0.00 94 1039.9
20210801065026 52 349 0.0 0.9 0.00 0.32 0.00 94 1039.9
20210801064527 52 349 0.0 0.0 0.00 0.32 0.00 94 1039.9
20210801064033 52 21 0.0 0.0 0.00 0.32 0.00 94 1039.9
20210801063525 52 21 0.0 0.0 0.00 0.32 0.00 94 1040.0
20210801063032 52 21 0.0 0.0 0.00 0.32 0.00 94 1040.0
20210801062513 52 21 0.0 0.9 0.00 0.32 0.00 94 1040.0
20210801062033 52 25 0.0 1.7 0.00 0.32 0.00 94 1040.0
20210801061538 52 253 0.0 1.7 0.00 0.32 0.00 94 1040.1
20210801061019 52 272 0.0 0.9 0.00 0.32 0.00 94 1040.1
20210801060547 52 23 0.0 0.9 0.00 0.32 0.00 94 1040.1
20210801060027 52 319 0.0 0.9 0.00 0.36 0.32 94 1040.0
20210801055611 52 250 0.0 0.0 0.00 0.36 0.32 94 1040.0
20210801055057 52 250 0.0 0.0 0.00 0.36 0.32 94 1039.9
20210801054522 52 250 0.0 0.0 0.00 0.36 0.32 94 1039.9
20210801054015 53 251 0.0 0.0 0.00 0.36 0.32 93 1039.9
20210801053608 53 251 0.0 0.0 0.00 0.36 0.32 93 1039.9
20210801053055 53 251 0.0 0.0 0.00 0.36 0.32 93 1039.9
20210801052547 53 251 0.0 0.9 0.00 0.36 0.32 93 1039.9
20210801052016 53 251 0.0 0.9 0.00 0.36 0.32 93 1039.9
20210801051541 53 251 0.0 0.9 0.00 0.36 0.32 93 1039.9
20210801051036 53 255 0.0 0.9 0.00 0.36 0.32 93 1039.9
20210801050603 53 255 0.0 0.9 0.00 0.36 0.32 93 1039.9
20210801050050 53 255 0.0 0.9 0.00 0.44 0.32 92 1039.9
20210801045526 53 255 0.0 0.9 0.00 0.44 0.32 92 1039.9
20210801045023 53 347 0.0 0.9 0.00 0.44 0.32 92 1039.9
20210801044551 53 252 0.0 0.9 0.00 0.44 0.32 92 1039.9
20210801044043 53 248 0.0 1.7 0.00 0.44 0.32 93 1039.9
20210801043516 53 251 0.0 0.0 0.00 0.44 0.32 93 1039.9
20210801043042 53 252 0.0 0.9 0.00 0.44 0.32 92 1039.9
20210801042537 53 250 0.0 0.9 0.00 0.44 0.32 92 1039.9
20210801042103 53 243 0.0 0.9 0.00 0.44 0.32 91 1039.8
20210801041558 53 242 0.0 2.6 0.00 0.44 0.32 91 1039.7
20210801041049 53 242 0.0 2.6 0.00 0.44 0.32 90 1039.7
20210801040537 53 245 0.0 1.7 0.00 0.44 0.32 91 1039.7
20210801040025 53 245 0.0 1.7 0.00 0.82 0.32 92 1039.7
20210801035559 53 241 0.9 1.7 0.00 0.82 0.32 92 1039.8
20210801035037 53 255 0.0 0.0 0.00 0.82 0.32 92 1039.8
20210801034603 53 255 0.0 0.9 0.00 0.82 0.32 92 1039.7
20210801034045 53 255 0.0 0.9 0.00 0.82 0.32 92 1039.7
20210801033540 53 255 0.0 0.9 0.00 0.82 0.32 92 1039.7
20210801033036 53 255 0.0 0.0 0.00 0.82 0.32 92 1039.6
20210801032523 53 256 0.0 0.9 0.00 0.82 0.32 92 1039.6
20210801032016 53 236 0.0 0.9 0.00 0.82 0.32 92 1039.5
20210801031605 53 236 0.0 1.7 0.00 0.82 0.32 93 1039.6
20210801031042 53 250 0.0 0.9 0.00 0.82 0.32 93 1039.5
20210801030603 53 252 0.0 0.0 0.01 0.82 0.32 93 1039.6
20210801030041 53 249 0.0 0.0 0.01 0.82 0.32 93 1039.5
20210801025605 53 243 0.0 0.0 0.01 0.82 0.32 93 1039.4
20210801025049 53 243 0.0 0.0 0.01 0.82 0.32 93 1039.3
20210801024543 53 240 0.0 0.0 0.01 0.82 0.32 93 1039.2
20210801024027 53 250 0.0 0.0 0.01 0.82 0.32 93 1039.3
20210801023557 53 231 0.0 0.9 0.02 0.82 0.32 93 1039.2
20210801023046 53 248 0.0 1.7 0.02 0.82 0.32 93 1039.2
20210801022518 53 260 0.0 1.7 0.03 0.82 0.32 93 1039.2
20210801022013 53 254 0.0 0.9 0.04 0.82 0.32 93 1039.1
20210801021541 54 267 0.0 0.9 0.05 0.82 0.32 94 1039.0
20210801021034 54 257 0.0 2.6 0.07 0.82 0.32 94 1039.0
20210801020527 54 252 0.0 0.9 0.08 0.81 0.31 94 1038.8
20210801015556 54 83 0.0 0.0 0.09 0.81 0.31 94 1038.8
20210801015043 54 83 0.0 0.0 0.10 0.81 0.31 94 1038.8
20210801014521 54 83 0.0 0.0 0.10 0.81 0.31 94 1038.8
20210801014049 54 83 0.0 0.0 0.10 0.81 0.31 94 1038.8
20210801013536 54 83 0.0 2.6 0.09 0.80 0.30 94 1038.8
20210801013030 54 83 0.0 4.3 0.09 0.80 0.30 93 1038.8
20210801012556 54 93 0.0 2.6 0.08 0.79 0.29 93 1038.8
20210801012052 54 69 0.9 4.3 0.07 0.78 0.28 93 1038.8
20210801011547 54 65 1.7 4.3 0.07 0.77 0.27 93 1038.8
20210801011019 55 46 0.0 0.9 0.05 0.75 0.25 93 1038.8
20210801010559 55 46 0.0 0.9 0.03 0.73 0.23 93 1038.8
20210801010049 55 20 0.0 0.9 0.03 0.72 0.22 93 1038.8
20210801005533 55 8 0.0 0.9 0.04 0.72 0.22 93 1038.8
20210801005020 56 8 0.0 0.9 0.04 0.71 0.21 93 1038.7
20210801004515 56 8 0.0 0.9 0.05 0.71 0.21 93 1038.6
20210801004103 56 8 0.0 0.9 0.06 0.71 0.21 93 1038.5
20210801003559 56 9 0.0 0.0 0.07 0.71 0.21 93 1038.6
20210801003053 56 18 0.0 0.0 0.08 0.71 0.21 93 1038.6
20210801002524 56 284 0.0 0.0 0.09 0.71 0.21 93 1038.6
20210801002051 56 284 0.0 0.9 0.10 0.71 0.21 93 1038.6
20210801001544 56 284 0.0 0.9 0.10 0.70 0.20 93 1038.6
20210801001030 56 284 0.0 0.0 0.10 0.70 0.20 93 1038.7
20210801000525 56 262 0.0 0.0 0.10 0.69 0.19 92 1038.7
20210731235551 56 262 0.0 0.0 0.09 0.68 0.18 92 1038.8
20210731235046 56 262 0.0 0.0 0.08 0.67 0.17 92 1038.8
20210731234518 56 262 0.0 0.0 0.07 0.66 0.16 92 1038.7
20210731234045 55 262 0.0 0.0 0.06 0.65 0.15 92 1038.7
20210731233540 56 262 0.0 0.9 0.06 0.64 0.14 91 1038.7
20210731233025 56 262 0.0 0.9 0.05 0.63 0.13 92 1038.7
20210731232601 56 14 0.0 0.0 0.04 0.62 0.12 92 1038.8
20210731232048 56 15 0.0 0.9 0.03 0.61 0.11 93 1038.7
20210731231543 56 15 0.0 0.9 0.02 0.60 0.10 92 1038.7
20210731231038 56 15 0.0 0.9 0.02 0.60 0.10 92 1038.7
20210731230606 56 15 0.0 0.9 0.01 0.59 0.09 92 1038.7
20210731230050 56 11 0.0 0.9 0.01 0.59 0.09 91 1038.7
20210731225534 56 11 0.0 0.9 0.01 0.59 0.09 90 1038.6
20210731225028 56 255 0.0 0.9 0.01 0.59 0.09 90 1038.5
20210731224516 56 232 0.0 0.9 0.01 0.59 0.09 89 1038.5
20210731224106 56 232 0.0 0.0 0.01 0.59 0.09 90 1038.6
20210731223551 57 232 0.0 0.9 0.00 0.58 0.08 90 1038.7
20210731223046 57 232 0.0 0.9 0.01 0.58 0.08 88 1038.7
20210731222541 57 228 0.0 0.9 0.01 0.58 0.08 89 1038.7
20210731222012 57 228 0.0 0.9 0.01 0.58 0.08 88 1038.7
20210731221539 57 75 0.0 0.0 0.01 0.58 0.08 88 1038.8
20210731221031 57 75 0.0 0.0 0.01 0.58 0.08 85 1038.6
20210731220516 57 75 0.0 0.9 0.01 0.58 0.08 87 1038.7
20210731220101 58 75 0.0 2.6 0.01 0.58 0.08 88 1038.7
20210731215547 58 75 0.9 1.7 0.02 0.58 0.08 89 1038.6
20210731215034 58 191 0.0 1.7 0.03 0.58 0.08 89 1038.6
20210731214601 58 82 0.0 1.7 0.03 0.58 0.08 90 1038.5
20210731214055 57 65 0.0 1.7 0.03 0.58 0.08 89 1038.5
20210731213527 57 113 0.0 2.6 0.03 0.58 0.08 89 1038.5
20210731213018 57 58 0.0 1.7 0.03 0.57 0.07 90 1038.6